Regional Weather Roundup
Issued by NWS Bismarck, ND

Home | Current Version | Previous Version | Text Only | Print | Product List | Glossary On
Versions: 1 2 3 4 5 6 7 8 9 10 11 12 13 14 15 16 17 18 19 20 21 22 23 24 25 26 27 28 29 30 31 32 33 34 35 36 37 38 39 40 41 42 43 44 45 46 47 48 49 50
000
ASUS43 KBIS 251520
RWRBIS

NWR BROADCAST TEXT
NATIONAL WEATHER SERVICE BISMARCK ND
1000 AM CDT SAT OCT 25 2014

NOTE: "FAIR" INDICATES FEW OR NO CLOUDS BELOW 12,000 FEET WITH NO
SIGNIFICANT WEATHER AND/OR OBSTRUCTIONS TO VISIBILITY.


CITY           SKY/WX    TMP DP  RH WIND       PRES   REMARKS
WILLISTON      PTSUNNY   43  33  68 CALM      30.13S
MINOT          MOSUNNY   44  30  57 SW6       30.13R
MINOT AFB      MOSUNNY   42  32  67 W8        30.13R
BISMARCK       MOSUNNY   47  34  60 S3        30.18R
DICKINSON      SUNNY     46  34  62 S3        30.13S
GARRISON         N/A     44  32  62 CALM      30.14R
HETTINGER ARPT SUNNY     41  33  73 CALM      30.16S
JAMESTOWN      CLOUDY    48  36  63 W9        30.14R
BEACH            N/A     45  34  65 S5        30.14F
CARRINGTON     FAIR      46  34  61 W15       30.15R
CROSBY         FAIR      37  36  93 S8        30.13S
HARVEY         FAIR      41  34  75 W7        30.15R
HAZEN          FAIR      43  34  70 CALM      30.16S
LINTON         FAIR      43  34  70 CALM      30.17S
MANDAN         FAIR      46  32  57 CALM      30.18R
OAKES            N/A     50  37  62 NW9       30.15R
RUGBY          FAIR      37  34  87 W7        30.13R
STANLEY        FAIR      39  32  75 CALM      30.14R
TIOGA          PTSUNNY   34  34 100 CALM      30.17R
$$

CITY           SKY/WX    TMP DP  RH WIND       PRES   REMARKS
GRAND FORKS    MOSUNNY   49  32  52 NW15      30.07R
GRAND FORKS AF SUNNY     49  33  54 NW10      30.07R
DEVILS LAKE    SUNNY     45  32  61 W16       30.09R
FARGO          MOSUNNY   49  33  54 W15       30.10R
CANDO          FAIR      41  32  70 W12       30.10S
CAVALIER       FAIR      48  30  49 W13       30.04R
GRAFTON        FAIR      45  32  61 W13       30.05R
GWINNER        MOSUNNY   52  32  46 NW9       30.15R
LANGDON        FAIR      39  30  70 W14       30.06R
ROLLA          FAIR      45  27  49 W8        30.09S
WALHALLA         N/A     46  28  49 W13G21    30.04R
$$

CITY           SKY/WX    TMP DP  RH WIND       PRES   REMARKS
ABERDEEN       MOSUNNY   53  36  52 NW5       30.16R
MOBRIDGE       SUNNY     51  38  60 NW3       30.15R
BUFFALO          N/A     46  32  58 E3        30.08S
RAPID CITY     SUNNY     48  34  58 S5        30.17S
GLASGOW        MOSUNNY   45  32  60 E8        30.06F
SIDNEY         MOSUNNY   43  36  75 CALM      30.14S
WOLF POINT     PTSUNNY   41  34  76 E5        30.10F
GLENDIVE       SUNNY     46  34  61 CALM      30.13F
MILES CITY     SUNNY     43  33  68 NE6       30.08F
BAKER          SUNNY     43  33  68 E7        30.13F
$$

CITY           SKY/WX    TMP DP  RH WIND       PRES   REMARKS
BILLINGS       MOSUNNY   37  32  82 S9        30.04F
GREAT FALLS    CLEAR     38  37  97 CALM      29.94F
REGINA         MOSUNNY   34  30  86 S5        30.08R
ESTEVAN        MOSUNNY   37  32  81 SW5       30.12R
$$




USA.gov is the U.S. government's official web portal to all federal, state and local government web resources and services.